Location: El Portezuelo
(28.4984°N, 16.3589°W)
Time: 15:50:49
(UTC+00:00)

Cosmos 2227 Rocket - Pass Details

Date: 20 January 2020
Orbit: 841 x 843 km, 71.0° (Epoch: 20 February)

Event Time Altitude Azimuth Distance (km) Brightness Sun altitude
Exits shadow 05:49:30 41° 8° (N) 1,197 2.9 -28.0°
Maximum altitude 05:51:19 62° 69° (ENE) 938 2.5 -27.6°
Drops below altitude 10° 05:56:52 10° 150° (SSE) 2,448 5.1 -26.4°
Sets 05:59:20 0° 154° (SSE) 3,380 5.8 -25.9°
